#timestamp,LO_Frequency,Hit 
1499857215.4,286046998.0,N
1499857235.3,286046997.9,N
1499857255.1,286046994.9,N
1499857275.9,286046998.0,N
1499857295.7,286046995.1,N
1499857315.5,286046996.7,N
1499857335.4,286046996.5,N
1499857355.2,286046997.6,N
1499857375.0,286046997.2,N
1499857376.0,286046997.2,N
1499857395.8,286046997.3,N
1499857415.6,286046997.9,N
1499857435.5,286046996.8,N
1499857455.3,286046997.7,N
1499857475.1,286046997.6,N
1499857495.9,286046995.0,N
1499857515.7,286046995.5,N
1499857535.6,286046997.4,N
1499857555.4,286046997.9,N
1499857575.2,286046997.2,N
1499857595.1,286046995.4,N
1499857596.0,286046995.4,N
1499857615.8,286046996.2,N
1499857635.7,286046996.3,N
1499857655.5,286046993.7,N
1499857675.3,286046993.4,N
1499857695.2,286046993.5,N
1499857715.0,286046996.0,N
1499857715.9,286046996.0,N
1499857735.8,286046993.5,N
1499857755.6,286046996.0,N
1499857775.4,286046995.6,N
1499857795.3,286046995.7,N
1499857815.1,286046996.0,N
1499857835.8,286046993.7,N
1499857855.7,286046993.8,N
1499857875.5,286046993.7,N
1499857895.4,286046993.7,N
1499857915.2,286046993.9,N
1499857935.0,286046993.3,N
1499857935.9,286046993.3,N
1499857955.8,286046996.1,N
1499857975.6,286046995.2,N
1499857995.5,286046995.5,N
1499858015.3,286046995.9,N
1499858035.1,286046996.0,N
1499858055.9,286046993.8,N
1499858075.7,286046994.3,N
1499858095.5,286046993.7,N
1499858115.4,286046996.4,N
1499858135.2,286046993.8,N
1499858155.1,286046994.2,N
1499858156.0,286046994.2,N
1499858175.8,286046986.3,N
1499858195.6,286046992.2,N
1499858215.5,286046994.5,N
1499858235.3,286046993.3,N
1499858255.2,286046993.9,N
1499858275.9,286046993.3,N
1499858295.7,286046995.8,N
1499858315.6,286046996.8,N
1499858335.4,286046995.2,N
1499858355.2,286046994.0,N
1499858375.1,286046993.7,N
1499858376.0,286046993.7,N
1499858395.8,286046992.1,N
1499858415.7,286046991.9,N
1499858435.5,286046994.8,N
1499858455.3,286046994.3,N
1499858475.2,286046994.0,N
1499858495.0,286046995.7,N
1499858495.9,286046995.7,N
1499858515.8,286046995.3,N
1499858535.6,286046997.6,N
1499858555.4,286046997.4,N
1499858575.3,286046997.7,N
1499858595.1,286046999.1,N
1499858615.9,286046999.5,N
1499858635.7,286046995.0,N
1499858655.5,286046997.6,N
1499858675.4,286046998.0,N
1499858695.2,286046997.7,N
1499858715.0,286046995.2,N
1499858716.0,286046995.2,N
1499858735.8,286046995.1,N
1499858755.6,286046995.1,N
1499858775.5,286046995.3,N
1499858795.3,286046997.6,N
1499858815.1,286046996.9,N
1499858835.9,286046997.0,N
1499858855.7,286046997.1,N
1499858875.6,286046997.0,N
1499858895.4,286046996.7,N
1499858915.2,286046997.7,N
1499858935.1,286046999.1,N
1499858936.0,286046999.1,N
1499858955.8,286046996.9,N
1499858975.6,286046996.6,N
1499858995.5,286046999.4,N
1499859015.3,286046996.7,N
1499859035.2,286046999.2,N
1499859055.9,286047001.1,N
1499859075.7,286046998.7,N
1499859095.6,286046999.2,N
1499859115.4,286047011.9,N
1499859135.3,286046999.5,N
1499859155.1,286046998.2,N
1499859156.0,286046998.2,N
1499859175.8,286046998.4,N
1499859195.7,286047001.2,N
1499859215.5,286046998.2,N
1499859235.3,286047001.2,N
1499859255.2,286047000.4,N
1499859275.0,286047000.5,N
1499859275.9,286047000.5,N
1499859295.8,286047000.8,N
1499859315.6,286047000.7,N
1499859335.4,286046999.2,N
1499859355.3,286046998.6,N
1499859375.1,286046999.3,N
1499859395.8,286046999.0,N
1499859415.7,286046996.8,N
1499859435.5,286046997.0,N
1499859455.4,286046997.4,N
1499859475.2,286046999.3,N
1499859495.0,286046998.4,N
1499859495.9,286046998.4,N
1499859515.8,286046998.3,N
1499859535.6,286047000.7,N
1499859555.5,286047000.2,N
1499859575.3,286047001.2,N
1499859595.1,286047001.0,N
1499859615.9,286047000.9,N
1499859635.7,286047002.4,N
1499859655.5,286046999.9,N
1499859675.4,286046998.4,N
1499859695.2,286046998.7,N
1499859715.1,286046998.5,N
1499859716.0,286046998.5,N
1499859735.8,286046999.9,N
1499859755.6,286046999.8,N
1499859775.5,286047000.6,N
1499859795.3,286046999.7,N
1499859815.1,286046999.7,N
1499859835.9,286047000.3,N
1499859855.7,286047002.7,N
1499859875.6,286047002.6,N
1499859895.4,286047002.6,N
1499859915.2,286047000.4,N
1499859935.1,286047000.6,N
1499859936.0,286047000.6,N
1499859955.8,286047000.6,N
1499859975.6,286047002.8,N
1499859995.5,286047001.5,N
1499860015.3,286047002.5,N
1499860035.2,286047003.8,N
1499860055.9,286047003.5,N
1499860075.7,286047003.6,N
1499860095.6,286047004.2,N
1499860115.4,286047002.2,N
1499860135.2,286047001.3,N
1499860155.1,286047003.5,N
1499860156.0,286047003.5,N
1499860175.8,286047001.8,N
1499860195.7,286047004.3,N
1499860215.5,286047002.2,N
1499860235.3,286046999.8,N
1499860255.2,286047000.6,N
1499860275.0,286047000.6,N
1499860275.9,286047000.6,N
1499860295.8,286046999.9,N
1499860315.6,286047002.2,N
1499860335.4,286047002.0,N
1499860355.3,286047002.6,N
1499860375.1,286047002.7,N
1499860395.9,286047002.3,N
1499860415.7,286047000.5,N
1499860435.5,286047001.1,N
1499860455.4,286047000.3,N
1499860475.2,286047000.3,N
1499860495.0,286047002.6,N
1499860495.9,286047002.6,N
1499860515.8,286047002.5,N
1499860535.6,286047002.7,N
1499860555.5,286046999.9,N
1499860575.3,286047002.6,N
1499860595.1,286046999.7,N
1499860615.9,286047001.1,N
1499860635.7,286047000.8,N
1499860655.5,286047001.1,N
1499860675.4,286047001.0,N
1499860695.2,286046998.6,N
1499860715.1,286046998.8,N
1499860716.0,286046998.8,N
1499860735.8,286047001.2,N
1499860755.6,286047001.1,N
1499860775.5,286046998.2,N
1499860795.3,286047000.7,N
